Tracking 19908 objects as of 19-Oct-2019
HD Live streaming from Space Station
objects crossing your sky now

SL-14 R/B

Track SL-14 R/B now!
10-day predictions


NORAD ID: 15100
Int'l Code: 1984-072B
Perigee: 945.7 km
Apogee: 964.9 km
Inclination: 82.5 °
Period: 104.0 minutes
Semi major axis: 7326 km
RCS: 5.0553 m2 (large)
Launch date: July 5, 1984
Source: Commonwealth of Independent States (former USSR) (CIS)
Launch site: PLESETSK MISSILE AND SPACE COMPLEX (PKMTR)

Note: This is a ROCKET BODY
aabbcc
Your satellite tracking list
Your tracking list is empty




NASA's NSSDC Master Catalog

Two Line Element Set (TLE):
1 15100U 84072B   19291.85685189 +.00000030 +00000-0 +13549-4 0  9999
2 15100 082.5329 183.1600 0013125 107.6093 252.6502 13.84439954782802
Source of the keplerian elements: AFSPC